Time,TemperatureF,DewpointF,PressureIn,WindDirection,WindDirectionDegrees,WindSpeedMPH,WindSpeedGustMPH,Humidity,HourlyPrecipIn,Conditions,Clouds,dailyrainin,SolarRadiationWatts/m^2,SoftwareType,DateUTC
2013-04-03 00:02:00,46.0,45.0,-100.00,WNW,293,2.0,4.0,98,0.00,,,0.01,0.000000,,2013-04-03 07:02:00,
2013-04-03 00:33:00,44.0,43.0,-100.00,NNW,331,3.0,5.0,97,0.00,,,-99.99,0.000000,,2013-04-03 07:33:00,
2013-04-03 00:42:00,44.0,43.0,-100.00,NNW,331,3.0,5.0,97,0.00,,,-99.99,0.000000,,2013-04-03 07:42:00,
2013-04-03 00:53:00,44.0,43.0,-100.00,NNW,331,3.0,5.0,97,0.00,,,-99.99,0.000000,,2013-04-03 07:53:00,
2013-04-03 01:02:00,44.0,43.0,-100.00,NNW,331,3.0,5.0,97,0.00,,,-99.99,0.000000,,2013-04-03 08:02:00,
2013-04-03 01:33:00,43.0,42.0,-100.00,SSW,211,1.0,6.0,98,0.00,,,0.01,0.000000,,2013-04-03 08:33:00,
2013-04-03 01:43:00,43.0,42.0,-100.00,SSW,211,1.0,6.0,98,0.00,,,0.01,0.000000,,2013-04-03 08:43:00,
2013-04-03 01:52:00,43.0,42.0,-100.00,SSW,211,1.0,6.0,98,0.00,,,0.01,0.000000,,2013-04-03 08:52:00,
2013-04-03 02:02:00,43.0,42.0,-100.00,SSW,211,1.0,6.0,98,0.00,,,0.01,0.000000,,2013-04-03 09:02:00,
2013-04-03 02:33:00,44.0,43.0,-100.00,SSE,166,5.0,6.0,98,0.00,,,0.01,0.000000,,2013-04-03 09:33:00,
2013-04-03 02:43:00,44.0,43.0,-100.00,SSE,166,5.0,6.0,98,0.00,,,0.01,0.000000,,2013-04-03 09:43:00,
2013-04-03 02:53:00,44.0,43.0,-100.00,SSE,166,5.0,6.0,98,0.00,,,0.01,0.000000,,2013-04-03 09:53:00,
2013-04-03 03:02:00,44.0,43.0,-100.00,SSE,166,5.0,6.0,98,0.00,,,0.01,0.000000,,2013-04-03 10:02:00,
2013-04-03 03:33:00,45.0,44.0,-100.00,South,173,6.0,9.0,98,0.00,,,0.01,0.000000,,2013-04-03 10:33:00,
2013-04-03 03:43:00,45.0,44.0,-100.00,South,173,6.0,9.0,98,0.00,,,0.01,0.000000,,2013-04-03 10:43:00,
2013-04-03 03:53:00,45.0,44.0,-100.00,South,173,6.0,9.0,98,0.00,,,0.01,0.000000,,2013-04-03 10:53:00,
2013-04-03 04:02:00,45.0,44.0,-100.00,South,173,6.0,9.0,98,0.00,,,0.01,0.000000,,2013-04-03 11:02:00,
2013-04-03 04:33:00,45.0,44.0,-100.00,South,175,8.0,10.0,97,0.00,,,0.01,0.000000,,2013-04-03 11:33:00,
2013-04-03 04:42:00,45.0,44.0,-100.00,South,175,8.0,10.0,97,0.00,,,0.01,0.000000,,2013-04-03 11:42:00,
2013-04-03 04:53:00,45.0,44.0,-100.00,South,175,8.0,10.0,97,0.00,,,0.01,0.000000,,2013-04-03 11:53:00,
2013-04-03 05:01:00,45.0,44.0,-100.00,South,175,8.0,10.0,97,0.00,,,0.01,0.000000,,2013-04-03 12:01:00,
2013-04-03 05:33:00,46.0,45.0,-100.00,South,178,10.0,11.0,97,0.00,,,-99.99,0.000000,,2013-04-03 12:33:00,
2013-04-03 05:42:00,46.0,45.0,-100.00,South,178,10.0,11.0,97,0.00,,,-99.99,0.000000,,2013-04-03 12:42:00,
2013-04-03 05:52:00,46.0,45.0,-100.00,South,178,10.0,11.0,97,0.00,,,-99.99,0.000000,,2013-04-03 12:52:00,
2013-04-03 06:02:00,46.0,45.0,-100.00,South,178,10.0,11.0,97,0.00,,,-99.99,0.000000,,2013-04-03 13:02:00,
2013-04-03 06:32:00,45.0,44.0,-100.00,South,180,10.0,14.0,97,0.00,,,0.00,0.000000,,2013-04-03 13:32:00,
2013-04-03 06:42:00,45.0,44.0,-100.00,South,180,10.0,14.0,97,0.00,,,0.00,0.000000,,2013-04-03 13:42:00,
2013-04-03 06:52:00,45.0,44.0,-100.00,South,180,10.0,14.0,97,0.00,,,0.00,0.000000,,2013-04-03 13:52:00,
2013-04-03 07:02:00,45.0,44.0,-100.00,South,180,10.0,14.0,97,0.00,,,0.00,0.000000,,2013-04-03 14:02:00,
2013-04-03 07:32:00,45.0,44.0,-100.00,South,177,12.0,15.0,98,0.00,,,0.00,2.000000,,2013-04-03 14:32:00,
2013-04-03 07:43:00,45.0,44.0,-100.00,South,177,12.0,15.0,98,0.00,,,0.00,2.000000,,2013-04-03 14:43:00,
2013-04-03 07:52:00,45.0,44.0,-100.00,South,177,12.0,15.0,98,0.00,,,0.00,2.000000,,2013-04-03 14:52:00,
2013-04-03 08:02:00,45.0,44.0,-100.00,South,177,12.0,15.0,98,0.00,,,0.00,2.000000,,2013-04-03 15:02:00,
2013-04-03 08:33:00,46.0,45.0,-100.00,South,176,12.0,15.0,98,0.00,,,-99.99,59.000000,,2013-04-03 15:33:00,
2013-04-03 08:43:00,46.0,45.0,-100.00,South,176,12.0,15.0,98,0.00,,,-99.99,59.000000,,2013-04-03 15:43:00,
2013-04-03 08:53:00,46.0,45.0,-100.00,South,176,12.0,15.0,98,0.00,,,-99.99,59.000000,,2013-04-03 15:53:00,
2013-04-03 09:02:00,46.0,45.0,-100.00,South,176,12.0,15.0,98,0.00,,,-99.99,59.000000,,2013-04-03 16:02:00,
2013-04-03 09:33:00,49.0,48.0,-100.00,South,179,10.0,14.0,96,0.00,,,0.00,199.000000,,2013-04-03 16:33:00,
2013-04-03 09:44:00,49.0,48.0,-100.00,South,179,10.0,14.0,96,0.00,,,0.00,199.000000,,2013-04-03 16:44:00,
2013-04-03 09:52:00,49.0,48.0,-100.00,South,179,10.0,14.0,96,0.00,,,0.00,199.000000,,2013-04-03 16:52:00,
2013-04-03 10:02:00,49.0,48.0,-100.00,South,179,10.0,14.0,96,0.00,,,0.00,199.000000,,2013-04-03 17:02:00,
2013-04-03 10:34:00,51.0,48.0,-100.00,South,177,9.0,12.0,90,0.00,,,0.00,327.000000,,2013-04-03 17:34:00,
2013-04-03 10:46:00,51.0,48.0,-100.00,South,177,9.0,12.0,90,0.00,,,0.00,327.000000,,2013-04-03 17:46:00,
2013-04-03 10:53:00,51.0,48.0,-100.00,South,177,9.0,12.0,90,0.00,,,0.00,327.000000,,2013-04-03 17:53:00,
2013-04-03 11:02:00,51.0,48.0,-100.00,South,177,9.0,12.0,90,0.00,,,0.00,327.000000,,2013-04-03 18:02:00,
2013-04-03 11:34:00,53.0,48.0,-100.00,South,172,9.0,12.0,84,0.00,,,0.00,388.000000,,2013-04-03 18:34:00,
2013-04-03 11:43:00,53.0,48.0,-100.00,South,172,9.0,12.0,84,0.00,,,0.00,388.000000,,2013-04-03 18:43:00,
2013-04-03 11:52:00,53.0,48.0,-100.00,South,172,9.0,12.0,84,0.00,,,0.00,388.000000,,2013-04-03 18:52:00,
2013-04-03 12:02:00,53.0,48.0,-100.00,South,172,9.0,12.0,84,0.00,,,0.00,388.000000,,2013-04-03 19:02:00,
2013-04-03 12:32:00,58.0,47.0,-100.00,SSE,166,2.0,9.0,68,0.00,,,0.00,416.000000,,2013-04-03 19:32:00,
2013-04-03 12:42:00,58.0,47.0,-100.00,SSE,166,2.0,9.0,68,0.00,,,0.00,416.000000,,2013-04-03 19:42:00,
2013-04-03 12:52:00,58.0,47.0,-100.00,SSE,166,2.0,9.0,68,0.00,,,0.00,416.000000,,2013-04-03 19:52:00,
2013-04-03 13:02:00,58.0,47.0,-100.00,SSE,166,2.0,9.0,68,0.00,,,0.00,416.000000,,2013-04-03 20:02:00,
2013-04-03 13:33:00,61.0,52.0,-100.00,South,174,2.0,6.0,72,0.00,,,0.00,489.000000,,2013-04-03 20:33:00,
2013-04-03 13:42:00,61.0,52.0,-100.00,South,174,2.0,6.0,72,0.00,,,0.00,489.000000,,2013-04-03 20:42:00,
2013-04-03 13:53:00,61.0,52.0,-100.00,South,174,2.0,6.0,72,0.00,,,0.00,489.000000,,2013-04-03 20:53:00,
2013-04-03 14:02:00,61.0,52.0,-100.00,South,174,2.0,6.0,72,0.00,,,0.00,489.000000,,2013-04-03 21:02:00,
2013-04-03 14:33:00,63.0,51.0,-100.00,South,174,2.0,4.0,66,0.00,,,-99.99,415.000000,,2013-04-03 21:33:00,
2013-04-03 14:42:00,63.0,51.0,-100.00,South,174,2.0,4.0,66,0.00,,,-99.99,415.000000,,2013-04-03 21:42:00,
2013-04-03 14:52:00,63.0,51.0,-100.00,South,174,2.0,4.0,66,0.00,,,-99.99,415.000000,,2013-04-03 21:52:00,
2013-04-03 15:02:00,63.0,51.0,-100.00,South,174,2.0,4.0,66,0.00,,,-99.99,415.000000,,2013-04-03 22:02:00,
2013-04-03 15:33:00,65.0,54.0,-100.00,ESE,118,1.0,4.0,67,0.00,,,0.00,422.000000,,2013-04-03 22:33:00,
2013-04-03 15:42:00,65.0,54.0,-100.00,ESE,118,1.0,4.0,67,0.00,,,0.00,422.000000,,2013-04-03 22:42:00,
2013-04-03 15:52:00,65.0,54.0,-100.00,ESE,118,1.0,4.0,67,0.00,,,0.00,422.000000,,2013-04-03 22:52:00,
2013-04-03 16:02:00,65.0,54.0,-100.00,ESE,118,1.0,4.0,67,0.00,,,0.00,422.000000,,2013-04-03 23:02:00,
2013-04-03 16:33:00,63.0,53.0,-100.00,North,355,3.0,7.0,69,0.00,,,0.00,427.000000,,2013-04-03 23:33:00,
2013-04-03 16:43:00,63.0,53.0,-100.00,North,355,3.0,7.0,69,0.00,,,0.00,427.000000,,2013-04-03 23:43:00,
2013-04-03 16:54:00,63.0,53.0,-100.00,North,355,3.0,7.0,69,0.00,,,0.00,427.000000,,2013-04-03 23:54:00,
2013-04-03 17:02:00,63.0,53.0,-100.00,North,355,3.0,7.0,69,0.00,,,0.00,427.000000,,2013-04-04 00:02:00,
2013-04-03 17:32:00,60.0,53.0,-100.00,NNW,340,3.0,7.0,77,0.00,,,0.00,284.000000,,2013-04-04 00:32:00,
2013-04-03 17:43:00,60.0,53.0,-100.00,NNW,340,3.0,7.0,77,0.00,,,0.00,284.000000,,2013-04-04 00:43:00,
2013-04-03 17:52:00,60.0,53.0,-100.00,NNW,340,3.0,7.0,77,0.00,,,0.00,284.000000,,2013-04-04 00:52:00,
2013-04-03 18:02:00,60.0,53.0,-100.00,NNW,340,3.0,7.0,77,0.00,,,0.00,284.000000,,2013-04-04 01:02:00,
2013-04-03 18:32:00,56.0,50.0,-100.00,NNW,334,3.0,5.0,79,0.00,,,0.00,132.000000,,2013-04-04 01:32:00,
2013-04-03 18:43:00,56.0,50.0,-100.00,NNW,334,3.0,5.0,79,0.00,,,0.00,132.000000,,2013-04-04 01:43:00,
2013-04-03 18:52:00,56.0,50.0,-100.00,NNW,334,3.0,5.0,79,0.00,,,0.00,132.000000,,2013-04-04 01:52:00,
2013-04-03 19:02:00,56.0,50.0,-100.00,NNW,334,3.0,5.0,79,0.00,,,0.00,132.000000,,2013-04-04 02:02:00,
2013-04-03 19:32:00,54.0,49.0,-100.00,NW,316,3.0,6.0,84,0.00,,,0.00,48.000000,,2013-04-04 02:32:00,
2013-04-03 19:42:00,54.0,49.0,-100.00,NW,316,3.0,6.0,84,0.00,,,0.00,48.000000,,2013-04-04 02:42:00,
2013-04-03 19:52:00,54.0,49.0,-100.00,NW,316,3.0,6.0,84,0.00,,,0.00,48.000000,,2013-04-04 02:52:00,
2013-04-03 20:02:00,54.0,49.0,-100.00,NW,316,3.0,6.0,84,0.00,,,0.00,48.000000,,2013-04-04 03:02:00,
2013-04-03 20:34:00,54.0,50.0,-100.00,SSE,160,0.0,4.0,86,0.00,,,0.00,4.000000,,2013-04-04 03:34:00,
2013-04-03 20:45:00,54.0,50.0,-100.00,SSE,160,0.0,4.0,86,0.00,,,0.00,4.000000,,2013-04-04 03:45:00,
2013-04-03 20:53:00,54.0,50.0,-100.00,SSE,160,0.0,4.0,86,0.00,,,0.00,4.000000,,2013-04-04 03:53:00,
2013-04-03 21:02:00,54.0,50.0,-100.00,SSE,160,0.0,4.0,86,0.00,,,0.00,4.000000,,2013-04-04 04:02:00,
2013-04-03 21:34:00,54.0,51.0,-100.00,West,259,2.0,5.0,89,0.00,,,0.00,0.000000,,2013-04-04 04:34:00,
2013-04-03 21:43:00,54.0,51.0,-100.00,West,259,2.0,5.0,89,0.00,,,0.00,0.000000,,2013-04-04 04:43:00,
2013-04-03 21:53:00,54.0,51.0,-100.00,West,259,2.0,5.0,89,0.00,,,0.00,0.000000,,2013-04-04 04:53:00,
2013-04-03 22:02:00,54.0,51.0,-100.00,West,259,2.0,5.0,89,0.00,,,0.00,0.000000,,2013-04-04 05:02:00,
2013-04-03 22:32:00,53.0,50.0,-100.00,SSE,152,4.0,6.0,89,0.00,,,0.00,0.000000,,2013-04-04 05:32:00,
2013-04-03 22:42:00,53.0,50.0,-100.00,SSE,152,4.0,6.0,89,0.00,,,0.00,0.000000,,2013-04-04 05:42:00,
2013-04-03 22:52:00,53.0,50.0,-100.00,SSE,152,4.0,6.0,89,0.00,,,0.00,0.000000,,2013-04-04 05:52:00,
2013-04-03 23:02:00,53.0,50.0,-100.00,SSE,152,4.0,6.0,89,0.00,,,0.00,0.000000,,2013-04-04 06:02:00,
2013-04-03 23:33:00,54.0,51.0,-100.00,NW,309,2.0,7.0,91,0.00,,,0.00,0.000000,,2013-04-04 06:33:00,
2013-04-03 23:42:00,54.0,51.0,-100.00,NW,309,2.0,7.0,91,0.00,,,0.00,0.000000,,2013-04-04 06:42:00,
2013-04-03 23:52:00,54.0,51.0,-100.00,NW,309,2.0,7.0,91,0.00,,,0.00,0.000000,,2013-04-04 06:52:00,